{"data":{"norad_id":56526,"epoch":"2026-09-20T00:11:15.428544Z","epoch_age_seconds":157324,"freshness":"FRESH","line1":"1 56526U 23065Z   26263.00781746 -.00000956  00000+0 -25219-4 0  9996","line2":"2 56526  43.0038 195.4577 0001669 261.4676  98.5987 15.27585201186317","mean_motion":15.27585201,"eccentricity":0.0001669,"inclination_deg":43.0038,"raan_deg":195.4577,"arg_perigee_deg":261.4676,"mean_anomaly_deg":98.5987,"bstar":-2.5219e-5,"rev_number":18631,"period_min":94.26642776176,"perigee_km":481.8883930586,"apogee_km":484.17865177898,"semimajor_km":6861.1705224188,"source":"CELESTRAK","updated_at":"2026-09-21T09:00:33.473668Z"}}